Weather in Marijampolė

Lithuania     54°33′26″N   23°21′12″E
temp.,
°C
wind,
m/s
gust,
m/s
humid.,
%
clouds,
%
prec.,
mm/h
press.,
hPa
HPBL,
m
28 july, wed
wed2800:00+18sw3492100 3.1 101254
03:00+17w239250 3.1 101137
06:00+17w119330 0.0 101111
09:00+20w128295 0.0 1012234
12:00+25w236077 0.0 1011951
15:00+27w464851 0.6 10111847
18:00+24wsw235981 0.0 101043
21:00+22sse33658 0.0 100921
29 july, thu
thu2900:00+19w51193100 1.8 1010284
03:00+19sw51292100 2.4 1009359
06:00+18wsw2595100 0.3 1009154
09:00+19wnw368617 0.3 1009402
12:00+24w45581 0.0 10091374
15:00+27w574783 0.0 10082380
18:00+23w595896 0.0 1008658
21:00+20wsw237479 0.0 100842
30 july, fri
fri3000:00+17wnw3684100 0.1 1009167
03:00+15ssw22905 0.1 100918
06:00+15ssw4108644 0.0 1008220
09:00+20wsw61056100 0.0 1008775
12:00+22wsw7114411 0.0 10081998
15:00+22wsw5952100 0.0 10071421
18:00+20wsw6115367 0.0 1006998
21:00+18sw5106342 0.0 1006270
31 july, sat
sat3100:00+15wsw47765 0.0 1006120
03:00+14sw45750 0.0 100773
06:00+14sw3574100 0.0 100670
09:00+19sw586099 0.0 1007332
12:00+23ssw4652100 0.0 1006645
15:00+19s4982100 0.4 1005250
18:00+19s4888100 0.8 1004280
21:00+19ssw3486100 1.9 100362
1 august, sun
sun100:00+15w36910 0.0 100691
03:00+13sw411880 0.0 1006173
06:00+12sw412890 0.0 1006246
09:00+18wsw6107153 0.0 1007640
12:00+22wsw685585 0.0 10081581
15:00+23wsw5748100 0.0 10081928
18:00+23wsw3451100 0.0 10071612
21:00+19w3465100 0.0 100773